SPACEBEE-105 (48896 NORAD) Tracking and Keplerian Element Data

This shows tracking and keplerian element data for the satellite.

Feedback or suggestion? Click here.




ElementValue
Catalog48896
NameSPACEBEE-105
Epoch Orbit1674
Epoch Day287.61099361
Epoch Year2021
RAAN54.7419
Inclination97.5263
Eccentricity0.0008601
Argument of Perigee218.0359
Mean Anonmoly142.0265
Mean Motion15.12192845
Decay Rate3.166E-05
L11 48896U 21059T 21287.61099361 .00003166 00000-0 18705-3 0 9997
L22 48896 97.5263 54.7419 0008601 218.0359 142.0265 15.12192845 16748

Live tracking and technical data element details for SPACEBEE-105 (NORAD 48896). SPACEBEE-105 can be tracked NOW for your location showing map with azimuth and elevation plus other details from your city location.

Track the satellite on the map from your city or location and see movement details for azimuth, elevation, latitude, longitude, range, height, and movement on the map or in text.







IsCatalogInMostPopularTable: catalog: 48896, numindb: 22
Update: records affected: 1



GetName: 48896 SPACEBEE-105

Hit Count: updated at: Tue, 19 Oct 2021 08:32:06 GMT